Flag for Brazil Weather past 2 weeks in Florianópolis, Santa Catarina, Brazil

Now
55 °F

Passing clouds.


Feels Like: 55 °F
Forecast: 60 / 66 °F
Wind: No wind

Location: Florianopolis Aeroporto

Current Time: Jul 28, 2014 at 10:17:41 PM

Latest Report: Jul 28, 2014 at 10:00 PM


Visibility: N/A

Pressure: 30.45 "Hg

Humidity: 94%

Dew point: 54 °F

Location of FlorianópolisLocation

Historic Weather in Florianópolis — Graph

°F

Florianópolis temperature yesterday

Maximum temperature yesterday: 64 °F (at 1:00 PM)
Minimum temperature yesterday: 55 °F (at 6:00 AM)
Average temperature yesterday: 59 °F

Past Weeks' High & Low Weather Summary

 TemperatureHumidityPressure
High73 °F (Jul 16, 3:00 PM)94% (Jul 15, 3:00 AM)30.51 "Hg (Jul 15, 3:00 AM)
Low50 °F (Jul 19, 5:00 AM)35% (Jul 19, 2:00 PM)29.77 "Hg (Jul 24, 4:00 AM)
Average63 °F75%30.16 "Hg
* Reported Jul 13 9:00 PM — Jul 28 9:00 PM, Florianópolis, Weather by CustomWeather, © 2014

Note: Actual official high and low records may vary slightly from our data, if they occured in-between our weather recording intervals... More about our weather records

Advertising

Florianópolis weather history for previous 24 hours

 ConditionsComfort  
Time TempWeatherWind HumidityBarometerVisibility
9:00 PM
Jul 28
57 °FPassing clouds.No wind88%30.45 "HgN/A
8:00 PM57 °FPassing clouds.2 mph88%30.45 "HgN/A
7:00 PM63 °FPassing clouds.5 mph73%30.45 "HgN/A
6:00 PM63 °FPassing clouds.3 mph73%30.45 "HgN/A
5:00 PM64 °FPassing clouds.No wind64%30.42 "HgN/A
4:00 PM64 °FPartly sunny.3 mph64%30.39 "HgN/A
3:00 PM64 °FPartly sunny.2 mph64%30.39 "HgN/A
2:00 PM66 °FScattered clouds.5 mph60%30.42 "HgN/A
1:00 PM64 °FScattered clouds.7 mph64%30.45 "HgN/A
12:00 PM64 °FScattered clouds.5 mph64%30.48 "HgN/A
11:00 AM63 °FScattered clouds.5 mph64%30.48 "HgN/A
10:00 AM61 °FPartly sunny.6 mph68%30.51 "HgN/A
9:00 AM61 °FPartly sunny.6 mph68%30.48 "HgN/A
8:00 AM59 °FPartly sunny.6 mph72%30.45 "HgN/A
7:00 AM57 °FPartly sunny.No wind77%30.42 "HgN/A
6:00 AM55 °FPartly sunny.2 mph94%30.42 "HgN/A
5:00 AM55 °FPassing clouds.No wind94%30.39 "HgN/A
4:00 AM55 °FPassing clouds.No wind88%30.39 "HgN/A
3:00 AM55 °FPassing clouds.5 mph88%30.39 "HgN/A
2:00 AM55 °FPassing clouds.3 mph94%30.42 "HgN/A
1:00 AM54 °FPassing clouds.No wind88%30.42 "HgN/A
12:00 AM54 °FPassing clouds.No wind88%30.42 "HgN/A
11:00 PM
Jul 27
57 °FPassing clouds.No wind77%30.42 "HgN/A
10:00 PM59 °FPassing clouds.2 mph72%30.42 "HgN/A
Weather by CustomWeather, © 2014

See weather overviewHow to use our weather pages